ANIK F3

Last updated on Thu Aug 13 2026 00:02:57 GMT+0000 (Coordinated Universal Time)

1 31102U 07009A 26224.54852135 -.00000019 00000+0 00000+0 0 9991 2 31102 1.3388 83.1310 0002528 53.3469 263.2754 1.00269927 47124
UTC large
Height (km)
Speed (km/s)
/
Latitude / Longitude
Inclination (degrees)
Orbital Period (minutes)
Azimuth
Elevation
Range (km)
Doppler Factor

Next 0 passes for location: London (51.5072 / 0.1276)

No passes found over London.
ANIK F3